Terminal Aerodrome Forecast
Issued by NWS

Home | Current Version | Previous Version | Text Only | Print | Product List | Glossary On
Versions: 1 2 3 4 5 6 7 8 9 10 11 12 13 14 15 16 17 18 19 20 21 22 23
000
FTUS46 KOTX 011720
TAFMWH
TAF
KMWH 011720Z 0118/0218 17003KT P6SM SCT200
     FM012100 22013KT P6SM SCT200
     FM020200 25007KT P6SM SCT150
     FM021000 34006KT P6SM SKC=

USA.gov is the U.S. government's official web portal to all federal, state and local government web resources and services.